Regional Weather Roundup
Issued by NWS

Home | Current Version | Previous Version | Graphics & Text | Print | Product List | Glossary On
Versions: 1 2 3 4 5 6 7 8 9 10 11 12 13 14 15 16 17 18 19 20 21 22 23 24 25 26 27 28 29 30 31 32 33 34 35 36 37 38 39 40 41 42 43 44 45 46 47 48 49 50
000
ASUS45 KTFX 251519
RWRMT
MONTANA HOURLY WEATHER ROUNDUP
NATIONAL WEATHER SERVICE GREAT FALLS MT
919 AM MDT FRI JUL 25 2014

NOTE: "FAIR" INDICATES FEW OR NO CLOUDS BELOW 12000 FEET WITH NO
SIGNIFICANT WEATHER AND/OR OBSTRUCTIONS TO VISIBILITY.

* THESE STATIONS ARE NOT UNDER NWS QUALITY CONTROL. THEY DO NOT
   REPORT WEATHER SUCH AS PRECIPITATION OR FOG.

MTZ001>007-043-251600-
WEST OF THE DIVIDE
CITY           SKY/WX    TMP DP  RH WIND       PRES   REMARKS
KALISPELL      PTCLDY    61  46  58 S10       30.05S
MISSOULA       PTCLDY    50  41  71 CALM      30.13F
BUTTE          SUNNY     52  36  55 N3        30.16S
MULLAN PASS    PTSUNNY   46  39  77 VRB5      30.16R
* ESSEX        N/A       56  41  57 N4         N/A
* LINCOLN      N/A       55  40  57 SW5G11     N/A
* LOOKOUT PASS N/A       52  42  69 VRB2       N/A
* POLSON       N/A       54  44  69 S2         N/A
* RONAN APT    SUNNY     57  48  72 N/A        N/A
* SEELEY LAKE  N/A       44  40  86 NE3        N/A
* THOMP F APT  SUNNY     56  25  30 NE2G7      N/A
$$

MTZ008-052>055-251600-
SOUTHWEST MONTANA
CITY           SKY/WX    TMP DP  RH WIND       PRES   REMARKS
BOZEMAN        SUNNY     55  37  51 CALM      30.11S
DILLON         SUNNY     57  39  51 SW10      30.13S
W YELLOWSTONE  SUNNY     54  27  35 S8        30.21S
* THREE FORKS  SUNNY     55  54  96 N/A        N/A
* BOULDER HILL N/A       55  32  42 S6         N/A
* MONIDA PASS  N/A       52  29  41 SE1        N/A
* RAYNOLDS PAS N/A       50  31  48 SE7G15     N/A
* WHITEHALL    N/A       51  40  66 SW4        N/A
* WISE RIVER   N/A       46  35  66 W3         N/A
$$

MTZ009>010-012-014-046-048-049-054-251600-
EAST SLOPES AND CENTRAL MONTANA
CITY           SKY/WX    TMP DP  RH WIND       PRES   REMARKS
CUT BANK       SUNNY     63  37  38 SW25G36   29.89F
GREAT FALLS    SUNNY     63  37  38 SW29G35   29.94R
HELENA         SUNNY     63  37  38 W18G25    30.08F
MALMSTROM AFB  SUNNY     63  36  37 SW32G44   29.97R
* CONRAD       SUNNY     63  48  58 SW15G20    N/A
* DEARBORN     N/A       62  37  40 S13G23     N/A
* EAST GLACIER N/A       56  37  49 NW10G32    N/A
* MONARCH      N/A       56  31  39 SW17G32    N/A
* ROGERS PASS  N/A       50  36  59 E17G37     N/A
* SAINT MARY   N/A       56  38  51 S9G26      N/A
* SWEET GRASS  N/A       61  37  41 W25G37     N/A
* WHITE SULPH  N/A       58  37  46 S2G7       N/A
$$

MTZ011-013-016-021-035-040-045-047-050-051-251600-
NORTH CENTRAL MONTANA
CITY           SKY/WX    TMP DP  RH WIND       PRES   REMARKS
HAVRE          SUNNY     66  37  34 SW25G35   29.86S
LEWISTOWN      SUNNY     66  34  31 W30G37    29.98S
* FORT BENTON  SUNNY     66  36  33 SW20G30   29.92F
* CHESTER      N/A       62  40  45 SW10G22    N/A
* DENTON       N/A       67  37  33 S4G9       N/A
* GEYSER       N/A       64  35  34 N/A        N/A
* JUDITH GAP   N/A       61  38  43 SW19G26    N/A
* LOMA         N/A       66  38  36 SW18G24    N/A
$$

MTZ017>020-022>027-061-062-251600-
NORTHEAST MONTANA
CITY           SKY/WX    TMP DP  RH WIND       PRES   REMARKS
GLASGOW        SUNNY     70  37  30 W18       29.86F
GLENDIVE       SUNNY     66  52  61 SE6       29.94F
JORDAN         SUNNY     70  36  29 NW8       29.92F
SIDNEY         SUNNY     72  39  30 SW15G20   29.91S
WOLF POINT     SUNNY     66  46  49 SW8       29.89S
* BEAVER HILL  N/A       67  47  49 SW8        N/A
* CIRCLE       N/A       68  41  38 W16        N/A
* LINDSAY DVD  N/A       68  45  44 SW13G18    N/A
* NAVAJO       N/A       61  47  60 SW15G21    N/A
$$

MTZ028>042-056>058-251600-
SOUTHCENTRAL AND SOUTHEAST MONTANA
CITY           SKY/WX    TMP DP  RH WIND       PRES   REMARKS
BAKER          SUNNY     66  46  49 VRB5      29.99S
BILLINGS       SUNNY     64  39  40 S9        30.00F
LIVINGSTON     SUNNY     64  34  33 W7        30.07S
MILES CITY     SUNNY     66  52  61 S8        29.95F
* LAUREL APT   SUNNY     66  37  34 N/A        N/A
* ROUNDUP APT  SUNNY     70  32  25 SW21G28    N/A
* ALZADA       N/A       65  45  49 W2         N/A
* HYSHAM       N/A       67  37  33 W11        N/A
* LAME DEER    N/A       67  45  45 S4         N/A
* REED POINT   N/A       67  42  40 SE1        N/A
* ROSCOE HILL  N/A       63  31  30 E7         N/A
$$

REGIONAL REPORTS...DAKOTAS
CITY           SKY/WX    TMP DP  RH WIND       PRES   REMARKS
WILLISTON      SUNNY     66  48  52 W6        29.88S
DICKINSON      SUNNY     66  48  52 NW15      29.92S
CROSBY         SUNNY     64  54  70 SW15G22   29.84F
TIOGA          SUNNY     63  55  75 W12       29.90F
WATFORD CITY   SUNNY     66  48  52 W12G17    29.88S
BISMARCK       SUNNY     73  48  41 NW17G26   29.85R
GRAND FORKS    CLOUDY    72  64  76 W6        29.76R
FARGO          CLOUDY    72  64  76 SW7       29.77R
BUFFALO SD     SUNNY     70  43  38 N12       29.92F
RAPID CITY     SUNNY     70  41  35 N14       30.01R
$$

REGIONAL REPORTS...WYOMING/IDAHO/WASHINGTON
CITY           SKY/WX    TMP DP  RH WIND       PRES   REMARKS
GILLETTE       SUNNY     66  39  37 VRB3      30.05F
SHERIDAN       SUNNY     66  52  61 CALM      30.00F
YELLOWSTONE LA SUNNY     48  36  63 CALM      30.28S
SALMON         SUNNY     55  39  55 CALM      30.14S
MULLAN PASS    PTSUNNY   46  39  77 VRB5      30.16S
SAND POINT     SUNNY     59  48  67 S8        30.08R
SPOKANE        SUNNY     55  45  69 SW9       30.11R
$$

REGIONAL REPORTS...ALBERTA
CITY           SKY/WX    TMP DP  RH WIND       PRES   REMARKS
CALGARY        LGT RAIN  59  39  48 NW10      29.75S
LETHBRIDGE     SUNNY     63  41  45 W35G44    29.79F
MEDICINE HAT   PTCLDY    66  45  47 W23G29    29.73R
EDMONTON       LGT RAIN  55  54  96 NW28G40   29.53R VSB 1
WATERTON GATE  N/A       57  39  51 SW23G35    N/A
CARDSTON       N/A       61  39  44 W20G33     N/A
MILK RIVER     N/A       64  37  37 W24G30     N/A
$$

REGIONAL REPORTS...SASKATCHEWAN
CITY           SKY/WX    TMP DP  RH WIND       PRES   REMARKS
SWIFT CURRENT  SUNNY     61  48  62 SW17G25   29.70F
MOOSE JAW      SUNNY     63  48  58 W20G25    29.72F
REGINA         N/A       61  52  72 SW15      29.73F
VAL MARIE      N/A       64  43  47 W23G32     N/A
ASSINIBOIA     N/A       61  46  58 W21G30     N/A
CORONACH       N/A       64  45  50 SW16G22    N/A

$$



USA.gov is the U.S. government's official web portal to all federal, state and local government web resources and services.